EST,Max TemperatureF,Mean TemperatureF,Min TemperatureF,Max Dew PointF,MeanDew PointF,Min DewpointF,Max Humidity, Mean Humidity, Min Humidity, Max Sea Level PressureIn, Mean Sea Level PressureIn, Min Sea Level PressureIn, Max VisibilityMiles, Mean VisibilityMiles, Min VisibilityMiles, Max Wind SpeedMPH, Mean Wind SpeedMPH, Max Gust SpeedMPH,PrecipitationIn, CloudCover, Events, WindDirDegrees
2014-1-1,61,58,54,58,54,48,93,87,77,30.32,30.23,30.10,10,6,2,7,4,,0.68,7,Rain,29
2014-1-2,66,62,53,62,57,42,94,89,66,30.07,29.92,29.77,10,6,1,26,6,37,1.24,8,Rain,326
2014-1-3,50,40,32,39,25,18,67,52,38,30.35,30.24,30.01,10,10,10,28,17,36,0.00,2,,2
2014-1-4,55,47,39,51,43,32,90,82,73,30.33,30.25,30.14,10,9,5,13,9,20,0.00,7,Rain,3
2014-1-5,73,62,52,62,55,49,94,85,64,30.13,30.04,29.93,10,8,0,9,4,,0.00,5,Fog-Rain,65
2014-1-6,66,52,37,63,47,12,90,72,36,30.37,30.03,29.88,10,9,2,23,11,31,0.04,5,Rain,272
2014-1-7,39,32,25,14,8,5,50,37,23,30.53,30.47,30.35,10,10,10,20,13,25,0.00,0,,340
2014-1-8,53,42,30,47,36,15,86,73,50,30.50,30.43,30.38,10,10,10,14,10,23,0.00,4,,1
2014-1-9,63,56,50,58,52,46,94,86,82,30.40,30.33,30.29,10,10,4,13,7,,0.01,8,Rain,19
2014-1-10,77,68,60,68,62,57,93,87,62,30.27,30.19,30.08,10,7,2,20,5,20,0.35,6,Rain,114
2014-1-11,81,72,64,68,64,60,93,84,58,30.08,29.95,29.82,10,8,1,25,10,36,0.77,6,Rain-Thunderstorm,220
2014-1-12,64,55,46,60,41,32,86,59,29,30.24,30.14,29.96,10,10,10,13,8,18,0.00,1,,307
2014-1-13,72,57,42,59,50,40,92,76,51,30.20,30.10,29.91,10,10,10,10,2,,0.00,1,Rain,136
2014-1-14,69,60,50,61,57,48,93,86,61,30.03,29.95,29.91,10,7,1,18,8,33,1.54,6,Rain-Thunderstorm,260
2014-1-15,63,53,43,45,40,35,90,63,35,30.06,29.98,29.93,10,10,10,16,4,23,0.00,0,,281
2014-1-16,51,45,37,35,24,15,79,46,24,30.17,30.09,30.00,10,10,10,20,13,30,0.00,1,Rain,311
2014-1-17,66,51,36,47,37,27,79,60,38,30.19,30.11,30.04,10,10,10,16,5,24,0.00,1,,241
2014-1-18,55,46,37,40,21,12,67,39,22,30.28,30.18,30.07,10,10,10,15,10,24,0.00,0,,285
2014-1-19,64,50,37,46,38,26,83,64,50,30.18,30.13,30.07,10,10,10,24,7,32,0.00,0,Rain,233
2014-1-20,68,52,37,44,38,32,93,73,27,30.15,30.09,30.01,10,5,0,10,1,,0.00,1,Fog-Rain,247
2014-1-21,72,61,46,56,48,26,86,68,43,29.99,29.82,29.67,10,9,2,23,11,33,0.22,3,Rain-Thunderstorm,258
2014-1-22,50,42,33,29,21,15,78,48,25,30.21,30.09,29.91,10,10,10,23,12,30,0.00,0,,306
2014-1-23,53,42,32,28,22,14,85,47,24,30.41,30.32,30.21,10,10,10,10,3,,0.00,0,,322
2014-1-24,43,40,37,28,20,10,63,45,28,30.54,30.45,30.34,10,10,10,16,8,24,0.00,2,,17
2014-1-25,60,50,41,48,38,29,77,63,47,30.31,30.12,29.99,10,10,10,15,5,23,0.00,6,Rain,248
2014-1-26,61,52,42,48,44,36,93,78,39,30.09,30.04,29.99,10,8,0,6,2,,0.00,1,Fog,295
2014-1-27,75,62,50,53,50,46,86,69,43,30.02,29.97,29.91,10,10,10,14,3,,0.00,3,,243
2014-1-28,61,51,41,57,52,38,93,89,75,30.09,30.04,29.98,10,4,2,16,5,23,0.16,8,Rain,10
2014-1-29,42,39,35,40,34,32,93,88,79,30.28,30.19,30.07,10,9,2,16,9,20,0.48,8,Rain,357
2014-1-30,43,38,34,37,33,31,93,83,70,30.29,30.24,30.19,10,8,3,14,10,,0.08,8,Rain,1
2014-1-31,54,46,39,50,43,35,89,82,74,30.22,30.17,30.14,10,9,2,10,7,,0.08,8,Rain,23